When you browse on this site, cookies collect data to enhance your experience and personalize the content and advertising you see.
Visit our Privacy Policy to learn more. By continuing to use the site, you agree to this use of cookies and data.
  • en France
  • Liste des pays
  • À 7 jours
  • Température de l'eau
  • Carte météo
  • Widgets météo
  • user-avatar
    Se connecter

    Météo par heure à Maints

    Ce jour, 16 Septembre, Lundi

    Heure Température Précipitation Vent Pression Humidité
    00:00 +18°C° 0 mm 1 m/s 757 mmHg 56%
    01:00 +16°C° 0 mm 0 m/s 757 mmHg 57%
    02:00 +15°C° 0 mm 0 m/s 757 mmHg 58%
    03:00 +15°C° 0 mm 0 m/s 757 mmHg 60%
    04:00 +15°C° 0 mm 0 m/s 756 mmHg 61%
    05:00 +15°C° 0 mm 0 m/s 756 mmHg 62%
    06:00 +15°C° 0 mm 0 m/s 756 mmHg 63%
    07:00 +15°C° 0 mm 0 m/s 756 mmHg 65%
    08:00 +17°C° 0 mm 0 m/s 756 mmHg 60%
    09:00 +21°C° 0 mm 1 m/s 756 mmHg 56%
    10:00 +22°C° 0 mm 1 m/s 756 mmHg 51%
    11:00 +23°C° 0 mm 1 m/s 756 mmHg 49%
    12:00 +24°C° 0 mm 1 m/s 756 mmHg 47%
    13:00 +25°C° 0 mm 2 m/s 755 mmHg 45%
    14:00 +24°C° 0 mm 2 m/s 755 mmHg 50%
    15:00 +24°C° 0 mm 2 m/s 755 mmHg 54%
    16:00 +22°C° 0 mm 3 m/s 754 mmHg 58%
    17:00 +21°C° 0 mm 2 m/s 754 mmHg 61%
    18:00 +20°C° 0 mm 2 m/s 754 mmHg 64%
    19:00 +19°C° 0 mm 2 m/s 754 mmHg 68%
    20:00 +19°C° 0 mm 2 m/s 755 mmHg 70%
    21:00 +18°C° 0 mm 2 m/s 755 mmHg 72%
    22:00 +18°C° 0 mm 2 m/s 755 mmHg 74%
    23:00 +18°C° 0 mm 2 m/s 755 mmHg 76%

    Demain, 17 Septembre, Mardi

    Heure Température Précipitation Vent Pression Humidité
    00:00 +18°C° 0 mm 2 m/s 755 mmHg 77%
    01:00 +17°C° 0 mm 2 m/s 755 mmHg 79%
    02:00 +17°C° 0 mm 2 m/s 755 mmHg 80%
    03:00 +16°C° 0 mm 2 m/s 755 mmHg 82%
    04:00 +15°C° 0 mm 2 m/s 755 mmHg 84%
    05:00 +15°C° 0 mm 2 m/s 756 mmHg 83%
    06:00 +14°C° 0 mm 2 m/s 756 mmHg 83%
    07:00 +14°C° 0 mm 2 m/s 756 mmHg 82%
    08:00 +15°C° 0 mm 2 m/s 756 mmHg 74%
    09:00 +16°C° 0 mm 2 m/s 756 mmHg 65%
    10:00 +17°C° 0 mm 2 m/s 757 mmHg 57%
    11:00 +18°C° 0 mm 2 m/s 756 mmHg 53%
    12:00 +19°C° 0 mm 3 m/s 756 mmHg 49%
    13:00 +20°C° 0 mm 3 m/s 756 mmHg 44%
    14:00 +20°C° 0 mm 3 m/s 756 mmHg 45%
    15:00 +20°C° 0 mm 4 m/s 755 mmHg 45%
    16:00 +20°C° 0 mm 4 m/s 755 mmHg 45%
    17:00 +18°C° 0 mm 4 m/s 755 mmHg 51%
    18:00 +17°C° 0 mm 4 m/s 756 mmHg 56%
    19:00 +14°C° 0 mm 4 m/s 756 mmHg 61%
    20:00 +13°C° 0 mm 3 m/s 757 mmHg 65%
    21:00 +12°C° 0 mm 3 m/s 758 mmHg 68%
    22:00 +11°C° 0 mm 3 m/s 759 mmHg 72%
    23:00 +11°C° 0 mm 3 m/s 759 mmHg 72%

    Après-demain, 18 Septembre, Mercredi

    Heure Température Précipitation Vent Pression Humidité
    00:00 +10°C° 0 mm 2 m/s 759 mmHg 72%
    01:00 +9°C° 0 mm 2 m/s 759 mmHg 72%
    02:00 +9°C° 0 mm 2 m/s 760 mmHg 73%
    03:00 +9°C° 0 mm 1 m/s 760 mmHg 74%
    04:00 +9°C° 0 mm 1 m/s 760 mmHg 75%
    05:00 +9°C° 0 mm 1 m/s 760 mmHg 75%
    06:00 +9°C° 0 mm 1 m/s 760 mmHg 74%
    07:00 +9°C° 0 mm 1 m/s 761 mmHg 74%
    08:00 +11°C° 0 mm 1 m/s 761 mmHg 66%
    09:00 +13°C° 0 mm 2 m/s 761 mmHg 58%
    10:00 +14°C° 0 mm 2 m/s 761 mmHg 50%
    11:00 +16°C° 0 mm 2 m/s 760 mmHg 46%
    12:00 +17°C° 0 mm 2 m/s 760 mmHg 41%
    13:00 +18°C° 0 mm 2 m/s 760 mmHg 37%
    14:00 +18°C° 0 mm 2 m/s 759 mmHg 36%
    15:00 +18°C° 0 mm 2 m/s 759 mmHg 36%
    16:00 +19°C° 0 mm 2 m/s 759 mmHg 35%
    17:00 +17°C° 0 mm 2 m/s 759 mmHg 40%
    18:00 +16°C° 0 mm 2 m/s 759 mmHg 46%
    19:00 +14°C° 0 mm 2 m/s 760 mmHg 51%
    20:00 +13°C° 0 mm 2 m/s 760 mmHg 55%
    21:00 +13°C° 0 mm 2 m/s 761 mmHg 60%
    22:00 +12°C° 0 mm 2 m/s 761 mmHg 65%
    23:00 +10°C° 0 mm 2 m/s 761 mmHg 67%

    19 Septembre, Jeudi

    Heure Température Précipitation Vent Pression Humidité
    00:00 +10°C° 0 mm 2 m/s 761 mmHg 68%
    01:00 +10°C° 0 mm 1 m/s 761 mmHg 70%
    02:00 +10°C° 0 mm 1 m/s 761 mmHg 72%
    03:00 +10°C° 0 mm 1 m/s 761 mmHg 74%
    04:00 +10°C° 0 mm 1 m/s 761 mmHg 75%
    05:00 +9°C° 0 mm 1 m/s 761 mmHg 76%
    06:00 +9°C° 0 mm 1 m/s 762 mmHg 77%
    07:00 +8°C° 0 mm 2 m/s 762 mmHg 78%
    08:00 +10°C° 0 mm 2 m/s 762 mmHg 71%
    09:00 +13°C° 0 mm 2 m/s 762 mmHg 64%
    10:00 +13°C° 0 mm 3 m/s 763 mmHg 57%
    11:00 +14°C° 0 mm 3 m/s 762 mmHg 52%
    12:00 +16°C° 0 mm 3 m/s 762 mmHg 47%
    13:00 +18°C° 0 mm 3 m/s 762 mmHg 42%
    14:00 +18°C° 0 mm 3 m/s 762 mmHg 40%
    15:00 +18°C° 0 mm 3 m/s 762 mmHg 38%
    16:00 +18°C° 0 mm 3 m/s 761 mmHg 36%
    17:00 +17°C° 0 mm 3 m/s 762 mmHg 41%
    18:00 +15°C° 0 mm 2 m/s 762 mmHg 46%
    19:00 +14°C° 0 mm 2 m/s 762 mmHg 51%
    20:00 +13°C° 0 mm 2 m/s 763 mmHg 53%
    21:00 +12°C° 0 mm 2 m/s 763 mmHg 56%
    22:00 +12°C° 0 mm 2 m/s 763 mmHg 58%
    23:00 +10°C° 0 mm 2 m/s 763 mmHg 61%

    20 Septembre, Vendredi

    Heure Température Précipitation Vent Pression Humidité
    00:00 +10°C° 0 mm 2 m/s 763 mmHg 63%
    01:00 +9°C° 0 mm 2 m/s 763 mmHg 65%
    02:00 +9°C° 0 mm 2 m/s 763 mmHg 67%
    03:00 +9°C° 0 mm 2 m/s 763 mmHg 68%
    04:00 +8°C° 0 mm 2 m/s 763 mmHg 70%
    05:00 +8°C° 0 mm 2 m/s 763 mmHg 70%
    06:00 +8°C° 0 mm 2 m/s 763 mmHg 70%
    07:00 +8°C° 0 mm 2 m/s 763 mmHg 71%
    08:00 +10°C° 0 mm 2 m/s 763 mmHg 64%
    09:00 +12°C° 0 mm 3 m/s 763 mmHg 57%
    10:00 +13°C° 0 mm 3 m/s 763 mmHg 50%
    11:00 +16°C° 0 mm 3 m/s 762 mmHg 45%
    12:00 +17°C° 0 mm 3 m/s 762 mmHg 40%
    13:00 +18°C° 0 mm 3 m/s 761 mmHg 35%
    14:00 +18°C° 0 mm 3 m/s 761 mmHg 34%
    15:00 +19°C° 0 mm 3 m/s 760 mmHg 33%
    16:00 +19°C° 0 mm 4 m/s 760 mmHg 31%
    17:00 +18°C° 0 mm 3 m/s 760 mmHg 36%
    18:00 +16°C° 0 mm 3 m/s 760 mmHg 40%
    19:00 +15°C° 0 mm 2 m/s 760 mmHg 45%
    20:00 +14°C° 0 mm 2 m/s 760 mmHg 48%
    21:00 +13°C° 0 mm 3 m/s 760 mmHg 51%
    22:00 +12°C° 0 mm 3 m/s 760 mmHg 54%
    23:00 +12°C° 0 mm 3 m/s 760 mmHg 57%

    21 Septembre, Samedi

    Heure Température Précipitation Vent Pression Humidité
    00:00 +12°C° 0 mm 2 m/s 760 mmHg 59%
    01:00 +12°C° 0 mm 2 m/s 759 mmHg 62%
    02:00 +10°C° 0 mm 2 m/s 759 mmHg 64%
    03:00 +10°C° 0 mm 2 m/s 759 mmHg 66%
    04:00 +9°C° 0 mm 2 m/s 758 mmHg 67%
    05:00 +9°C° 0 mm 2 m/s 758 mmHg 67%
    06:00 +9°C° 0 mm 2 m/s 758 mmHg 66%
    07:00 +9°C° 0 mm 2 m/s 758 mmHg 66%
    08:00 +11°C° 0 mm 3 m/s 758 mmHg 59%
    09:00 +13°C° 0 mm 3 m/s 758 mmHg 52%
    10:00 +14°C° 0 mm 3 m/s 758 mmHg 45%
    11:00 +17°C° 0 mm 3 m/s 757 mmHg 43%
    12:00 +18°C° 0 mm 3 m/s 757 mmHg 41%
    13:00 +20°C° 0 mm 3 m/s 756 mmHg 39%
    14:00 +21°C° 0 mm 3 m/s 756 mmHg 40%
    15:00 +21°C° 0 mm 2 m/s 755 mmHg 41%
    16:00 +23°C° 0 mm 2 m/s 755 mmHg 42%
    17:00 +20°C° 0 mm 2 m/s 755 mmHg 49%
    18:00 +19°C° 0 mm 2 m/s 755 mmHg 55%
    19:00 +18°C° 0 mm 1 m/s 755 mmHg 62%
    20:00 +16°C° 0 mm 1 m/s 755 mmHg 66%
    21:00 +16°C° 0 mm 1 m/s 755 mmHg 70%
    22:00 +15°C° 0 mm 1 m/s 755 mmHg 74%
    23:00 +15°C° 0 mm 1 m/s 755 mmHg 76%
    Voir plus